Location: Nairn
(57.5833°N, 3.8667°W)
Time: 02:29:00
(UTC+00:00)

UNK - Pass Details

Date: 07 August 2020
Orbit: 665 x 687 km, 98.1° (Epoch: 19 September)

Event Time Altitude Azimuth Distance (km) Brightness Sun altitude
Exits shadow 02:30:44 16° 203° (SSW) 1,780 5.3 -11.4°
Maximum altitude 02:34:03 36° 264° (W) 1,083 4.5 -11.2°
Drops below altitude 10° 02:38:25 10° 332° (NNW) 2,152 6.7 -10.8°
Sets 02:40:50 0° 341° (NNW) 3,072 7.7 -10.7°
